Willmar, MN

8:34 AM CDT on September 23, 2017 (GMT -0500)
Willmar

Weather History for KBDH - May, 2014

Change the Weather History Date:

Thursday, May 15, 2014

  Actual Average (KBBB) Record (KBBB)
Temperature  
Mean Temperature 42 °F -  
Max Temperature 48 °F 72 °F 93 °F (2001)
Min Temperature 37 °F 46 °F 5 °F (1999)
Degree Days  
Heating Degree Days 22    
Moisture  
Dew Point 29 °F    
Average Humidity 59    
Maximum Humidity 75    
Minimum Humidity 46    
Precipitation  
Precipitation 0.00 in - - ()
Sea Level Pressure  
Sea Level Pressure 30.20 in    
Wind  
Wind Speed 10 mph (North)    
Max Wind Speed 17 mph    
Max Gust Speed 22 mph    
Visibility 10 miles    
Events      
Averages and records for this station are not official NWS values.
T = Trace of Precipitation, MM = Missing Value Source: NWS Daily Summary

Daily Weather History Graph

Daily Weather History Graph

Search for Another Location

Airport or City:

Trip Planner

Search our weather history database for the weather conditions in past years. The results will help you decide how hot, cold, wet, or windy it might be!

Date:

Astronomy

May. 15, 2014 Rise Set
Actual Time 5:51 AM CDT 8:43 PM CDT
Civil Twilight 5:16 AM CDT 9:17 PM CDT
Nautical Twilight 4:33 AM CDT 10:01 PM CDT
Astronomical Twilight 3:41 AM CDT 10:53 PM CDT
Moon 9:52 PM CDT (5/15) 6:39 AM CDT (5/15)
Length of Visible Light 16h 01m
Length of Day
14h 52m
Full, 99% of the Moon is Illuminated
May 15
Full
May 21
Last Quarter
May 28
New
Jun 5
First Quarter
Jun 12
Full

Hourly Weather History & Observations

Time (CDT) Temp. Windchill Dew Point Humidity Pressure Visibility Wind Dir Wind Speed Gust Speed Precip Events Conditions
12:15 AM 39.2 °F 32.5 °F 30.2 °F 70% 30.26 in 10.0 mi North 10.4 mph - N/A   Clear
12:36 AM 37.4 °F 30.8 °F 30.2 °F 75% 30.25 in 10.0 mi North 9.2 mph - N/A   Mostly Cloudy
12:55 AM 39.2 °F 33.6 °F 30.2 °F 70% 30.25 in 10.0 mi North 8.1 mph - N/A   Overcast
1:15 AM 39.2 °F 34.2 °F 30.2 °F 70% 30.25 in 10.0 mi North 6.9 mph - N/A   Overcast
1:36 AM 39.2 °F 33.0 °F 30.2 °F 70% 30.25 in 10.0 mi North 9.2 mph - N/A   Overcast
1:55 AM 39.2 °F 33.0 °F 30.2 °F 70% 30.24 in 10.0 mi North 9.2 mph - N/A   Overcast
2:15 AM 39.2 °F 33.6 °F 30.2 °F 70% 30.23 in 10.0 mi North 8.1 mph - N/A   Overcast
2:35 AM 39.2 °F 32.0 °F 30.2 °F 70% 30.23 in 10.0 mi North 11.5 mph - N/A   Overcast
2:55 AM 39.2 °F 32.5 °F 30.2 °F 70% 30.22 in 10.0 mi North 10.4 mph - N/A   Overcast
3:16 AM 39.2 °F 32.5 °F 30.2 °F 70% 30.23 in 10.0 mi North 10.4 mph - N/A   Overcast
3:35 AM 39.2 °F 33.0 °F 30.2 °F 70% 30.23 in 10.0 mi North 9.2 mph - N/A   Overcast
3:55 AM 39.2 °F 34.2 °F 30.2 °F 70% 30.22 in 10.0 mi North 6.9 mph - N/A   Overcast
4:16 AM 39.2 °F 33.0 °F 30.2 °F 70% 30.22 in 10.0 mi North 9.2 mph - N/A   Overcast
4:35 AM 39.2 °F 33.6 °F 30.2 °F 70% 30.22 in 10.0 mi North 8.1 mph - N/A   Overcast
4:55 AM 39.2 °F 32.5 °F 30.2 °F 70% 30.22 in 10.0 mi North 10.4 mph - N/A   Overcast
5:16 AM 39.2 °F 33.0 °F 30.2 °F 70% 30.21 in 10.0 mi North 9.2 mph - N/A   Overcast
5:35 AM 39.2 °F 34.2 °F 30.2 °F 70% 30.21 in 10.0 mi North 6.9 mph - N/A   Overcast
5:55 AM 39.2 °F 34.2 °F 30.2 °F 70% 30.21 in 10.0 mi North 6.9 mph - N/A   Overcast
6:16 AM 39.2 °F 33.6 °F 30.2 °F 70% 30.21 in 10.0 mi North 8.1 mph - N/A   Overcast
6:35 AM 39.2 °F 32.0 °F 30.2 °F 70% 30.22 in 10.0 mi North 11.5 mph - N/A   Overcast
6:55 AM 39.2 °F 33.0 °F 30.2 °F 70% 30.22 in 10.0 mi North 9.2 mph - N/A   Overcast
7:16 AM 39.2 °F 33.0 °F 30.2 °F 70% 30.22 in 10.0 mi North 9.2 mph - N/A   Overcast
7:35 AM 39.2 °F 33.0 °F 30.2 °F 70% 30.22 in 10.0 mi North 9.2 mph - N/A   Mostly Cloudy
7:55 AM 39.2 °F 33.0 °F 30.2 °F 70% 30.22 in 10.0 mi North 9.2 mph - N/A   Mostly Cloudy
8:16 AM 41.0 °F 33.9 °F 30.2 °F 65% 30.22 in 10.0 mi North 12.7 mph 16.1 mph N/A   Mostly Cloudy
8:35 AM 41.0 °F 33.1 °F 30.2 °F 65% 30.22 in 10.0 mi North 15.0 mph - N/A   Mostly Cloudy
8:55 AM 41.0 °F 34.3 °F 30.2 °F 65% 30.22 in 10.0 mi North 11.5 mph - N/A   Scattered Clouds
9:15 AM 42.8 °F 36.6 °F 30.2 °F 61% 30.22 in 10.0 mi North 11.5 mph - N/A   Scattered Clouds
9:35 AM 42.8 °F 36.2 °F 30.2 °F 61% 30.22 in 10.0 mi North 12.7 mph - N/A   Clear
9:56 AM 42.8 °F 35.1 °F 28.4 °F 57% 30.22 in 10.0 mi North 16.1 mph 19.6 mph N/A   Scattered Clouds
10:15 AM 42.8 °F 35.4 °F 28.4 °F 57% 30.22 in 10.0 mi North 15.0 mph 19.6 mph N/A   Clear
10:35 AM 44.6 °F 37.4 °F 26.6 °F 49% 30.21 in 10.0 mi North 16.1 mph 21.9 mph N/A   Clear
10:56 AM 44.6 °F 37.4 °F 26.6 °F 49% 30.21 in 10.0 mi North 16.1 mph - N/A   Clear
11:15 AM 44.6 °F 38.1 °F 26.6 °F 49% 30.21 in 10.0 mi North 13.8 mph - N/A   Scattered Clouds
11:35 AM 44.6 °F 38.1 °F 26.6 °F 49% 30.21 in 10.0 mi North 13.8 mph - N/A   Scattered Clouds
11:55 AM 44.6 °F 37.4 °F 26.6 °F 49% 30.21 in 10.0 mi North 16.1 mph 20.7 mph N/A   Scattered Clouds
12:15 PM 44.6 °F 37.2 °F 26.6 °F 49% 30.20 in 10.0 mi North 17.3 mph 20.7 mph N/A   Scattered Clouds
12:36 PM 44.6 °F 38.1 °F 26.6 °F 49% 30.20 in 10.0 mi North 13.8 mph - N/A   Scattered Clouds
12:55 PM 46.4 °F 40.4 °F 26.6 °F 46% 30.20 in 10.0 mi NNW 13.8 mph - N/A   Scattered Clouds
1:15 PM 46.4 °F 40.1 °F 26.6 °F 46% 30.20 in 10.0 mi NNW 15.0 mph - N/A   Clear
2:16 PM 46.4 °F 40.4 °F 26.6 °F 46% 30.19 in 10.0 mi North 13.8 mph 18.4 mph N/A   Clear
2:35 PM 46.4 °F 40.4 °F 26.6 °F 46% 30.19 in 10.0 mi North 13.8 mph - N/A   Scattered Clouds
2:56 PM 46.4 °F 41.5 °F 26.6 °F 46% 30.19 in 10.0 mi North 10.4 mph - N/A   Scattered Clouds
3:15 PM 46.4 °F 40.7 °F 28.4 °F 50% 30.18 in 10.0 mi NNW 12.7 mph - N/A   Scattered Clouds
3:35 PM 48.2 °F - 28.4 °F 46% 30.18 in 10.0 mi North 11.5 mph - N/A   Clear
3:56 PM 46.4 °F 40.4 °F 26.6 °F 46% 30.17 in 10.0 mi NNW 13.8 mph 18.4 mph N/A   Scattered Clouds
4:15 PM 46.4 °F 40.4 °F 28.4 °F 50% 30.17 in 10.0 mi NNW 13.8 mph - N/A   Scattered Clouds
4:36 PM 46.4 °F 40.4 °F 26.6 °F 46% 30.17 in 10.0 mi North 13.8 mph - N/A   Scattered Clouds
4:55 PM 46.4 °F 40.4 °F 26.6 °F 46% 30.17 in 10.0 mi North 13.8 mph - N/A   Scattered Clouds
5:15 PM 46.4 °F 40.7 °F 26.6 °F 46% 30.17 in 10.0 mi North 12.7 mph 19.6 mph N/A   Scattered Clouds
5:36 PM 46.4 °F 41.5 °F 26.6 °F 46% 30.16 in 10.0 mi North 10.4 mph - N/A   Scattered Clouds
5:55 PM 46.4 °F 41.1 °F 26.6 °F 46% 30.16 in 10.0 mi North 11.5 mph - N/A   Scattered Clouds
6:15 PM 46.4 °F 41.1 °F 28.4 °F 50% 30.16 in 10.0 mi North 11.5 mph - N/A   Scattered Clouds
6:36 PM 44.6 °F 39.2 °F 28.4 °F 53% 30.16 in 10.0 mi North 10.4 mph - N/A   Scattered Clouds
6:56 PM 44.6 °F 41.4 °F 28.4 °F 53% 30.16 in 10.0 mi North 5.8 mph - N/A   Scattered Clouds
7:15 PM 44.6 °F 40.2 °F 28.4 °F 53% 30.16 in 10.0 mi North 8.1 mph - N/A   Scattered Clouds
7:35 PM 44.6 °F 38.4 °F 28.4 °F 53% 30.16 in 10.0 mi North 12.7 mph - N/A   Scattered Clouds
7:56 PM 44.6 °F 38.8 °F 28.4 °F 53% 30.16 in 10.0 mi North 11.5 mph - N/A   Mostly Cloudy
8:15 PM 44.6 °F 39.7 °F 28.4 °F 53% 30.16 in 10.0 mi North 9.2 mph - N/A   Overcast
8:35 PM 44.6 °F 40.7 °F 28.4 °F 53% 30.16 in 10.0 mi North 6.9 mph - N/A   Overcast
8:56 PM 44.6 °F 40.7 °F 28.4 °F 53% 30.16 in 10.0 mi North 6.9 mph - N/A   Overcast
9:15 PM 44.6 °F 39.7 °F 28.4 °F 53% 30.16 in 10.0 mi North 9.2 mph - N/A   Overcast
9:35 PM 44.6 °F 40.2 °F 28.4 °F 53% 30.17 in 10.0 mi North 8.1 mph - N/A   Overcast
9:56 PM 42.8 °F 38.6 °F 28.4 °F 57% 30.17 in 10.0 mi North 6.9 mph - N/A   Overcast
10:15 PM 42.8 °F 38.0 °F 26.6 °F 53% 30.17 in 10.0 mi North 8.1 mph - N/A   Overcast
10:35 PM 42.8 °F 39.3 °F 28.4 °F 57% 30.17 in 10.0 mi NNW 5.8 mph - N/A   Overcast
10:56 PM 42.8 °F 40.1 °F 28.4 °F 57% 30.16 in 10.0 mi North 4.6 mph - N/A   Overcast
11:15 PM 42.8 °F 39.3 °F 28.4 °F 57% 30.16 in 10.0 mi NNW 5.8 mph - N/A   Overcast
11:35 PM 41.0 °F 37.1 °F 30.2 °F 65% 30.16 in 10.0 mi NNW 5.8 mph - N/A   Overcast
11:56 PM 41.0 °F 39.0 °F 30.2 °F 65% 30.15 in 10.0 mi NNW 3.5 mph - N/A   Overcast